Location: Poprad
(49.0500°N, 20.3000°E)
Time: 20:46:42
(UTC+01:00)

ISS - Visible Passes

Search period start: 24 March 2019 00:00
Search period end: 03 April 2019 01:00
Orbit: 408 x 411 km, 51.6° (Epoch: 24 March)

Date Brightness Start Highest point End Pass type
(mag) Time Alt. Az. Time Alt. Az. Time Alt. Az.
24 Mar -3.9 19:32:59 10° WSW 19:36:16 73° SSE 19:37:09 45° E visible
24 Mar -0.5 21:09:44 10° W 21:09:56 11° W 21:09:56 11° W visible
25 Mar -3.5 18:42:29 10° SW 18:45:40 48° SSE 18:48:51 10° ENE visible
25 Mar -2.8 20:18:59 10° W 20:21:38 47° WNW 20:21:38 47° WNW visible
26 Mar -3.7 19:28:14 10° W 19:31:32 71° NNW 19:33:13 26° ENE visible
26 Mar -0.9 21:05:07 10° WNW 21:05:59 17° WNW 21:05:59 17° WNW visible
27 Mar -3.8 18:37:32 10° WSW 18:40:51 87° SSE 18:44:09 10° ENE visible
27 Mar -3.1 20:14:22 10° W 20:17:27 51° NNW 20:17:27 51° NNW visible
28 Mar -3.3 19:23:35 10° W 19:26:51 55° N 19:28:51 21° ENE visible
28 Mar -1.2 21:00:23 10° WNW 21:01:37 21° WNW 21:01:37 21° WNW visible
29 Mar -3.4 18:32:47 10° W 18:36:04 63° NNW 18:39:22 10° ENE visible
29 Mar -3.4 20:09:38 10° WNW 20:12:55 56° N 20:12:58 56° NNE visible
30 Mar -3.2 19:18:53 10° WNW 19:22:07 52° N 19:24:16 19° ENE visible
30 Mar -1.5 20:55:33 10° WNW 20:57:01 24° WNW 20:57:01 24° WNW visible
31 Mar -3.9 21:04:49 10° WNW 21:08:08 75° NNE 21:08:18 72° NE visible
01 Apr -3.5 20:14:04 10° WNW 20:17:21 61° N 20:19:35 19° E visible
01 Apr -1.7 21:50:43 10° WNW 21:52:20 24° W 21:52:20 24° W visible
02 Apr -3.8 20:59:55 10° WNW 21:03:13 67° SSW 21:03:36 59° SSE visible
